Dewpoint
57 57 58 58 58 57 57 57 57 57 57 57 58 58 58 58 57 57 57 57 57 57 57 58 58 58 59 59 59 59 59 54 50 47 43 30 69 74 76 75 75 76 77 70 68 68 68 67 66 65 65 65 67 66 68 69 69 68 62 57 55 58 56 57 58 58 61 62 64 64 67 65 63 66 67 69 67 67 67 67 68 70 69 69 67 67 66 59
57 57 57 57 57 57 57 57 57 57 57 57 57 57 57 57 57 57 57 57 57 57 57 58 58 59 59 59 59 59 57 54 48 40 37 57 73 76 75 75 76 77 76 67 66 66 65 63 64 65 65 66 67 66 68 66 68 64 61 55 55 57 58 60 61 60 62 63 64 64 67 64 64 66 67 65 65 66 65 67 68 68 69 68 67 67 64 58
56 57 57 57 57 57 57 57 56 57 57 57 57 57 57 56 57 57 57 57 57 57 57 57 58 58 59 59 59 59 56 51 48 40 34 72 75 75 75 75 75 76 69 64 65 65 63 63 62 62 64 65 66 62 68 66 65 66 59 54 55 56 59 61 63 61 63 65 64 64 66 64 66 65 67 64 64 66 65 65 66 67 68 67 66 65 62 58
56 57 56 57 57 57 57 56 56 56 56 57 57 57 56 56 57 57 57 57 57 57 57 58 58 58 59 59 59 57 55 53 41 37 57 73 74 75 75 75 75 74 67 63 65 64 63 62 61 61 62 65 64 63 63 62 61 58 62 59 55 55 55 59 63 63 63 64 65 65 65 65 67 66 65 66 65 66 67 67 65 66 66 67 65 62 60 58
56 56 56 56 56 56 56 56 56 56 56 56 56 56 56 56 57 57 57 57 57 57 57 58 58 59 59 59 59 56 53 37 40 45 55 72 75 74 76 76 76 66 64 64 64 62 62 62 60 61 62 64 66 61 58 57 60 58 57 56 54 55 55 60 64 65 62 64 66 64 62 62 65 67 66 66 64 64 67 68 66 67 66 66 64 61 58 57
56 56 56 56 56 56 56 56 56 56 56 56 56 56 56 56 57 57 57 57 57 57 58 58 59 59 59 59 56 52 46 31 45 43 66 73 74 76 76 77 77 64 62 63 62 60 60 60 60 61 60 61 61 57 56 55 54 54 57 56 54 54 56 59 62 64 63 64 65 64 66 66 67 65 66 66 64 65 67 68 67 68 67 67 65 61 57 57
56 56 56 55 55 55 55 55 55 55 56 56 55 56 56 56 56 57 57 57 57 57 58 58 59 59 59 59 54 50 46 35 47 51 70 73 76 77 77 77 77 64 60 62 61 58 59 59 60 61 62 61 60 57 54 51 56 55 54 53 53 56 57 58 64 64 61 66 66 66 67 64 64 63 67 66 66 67 68 68 69 68 68 66 63 59 57 56
55 55 55 55 55 55 55 55 55 55 55 55 56 56 56 56 56 56 57 57 57 57 58 58 59 59 59 53 50 49 42 32 51 54 70 74 71 74 74 60 58 56 58 60 59 58 60 60 60 60 59 61 57 54 57 55 55 54 52 53 54 56 59 59 58 62 64 66 66 66 66 65 65 65 66 66 68 68 69 69 69 68 67 67 62 58 57 55
55 55 55 55 54 54 54 55 55 55 55 55 56 55 56 56 56 56 56 57 57 58 58 59 59 59 59 55 44 36 34 47 48 50 64 53 48 54 52 49 52 52 58 61 57 58 59 60 60 60 59 57 56 54 56 53 54 53 51 53 53 54 59 60 62 63 63 65 64 64 66 67 67 65 65 66 67 69 70 68 68 68 67 66 63 58 57 56
55 55 55 54 54 54 54 54 55 55 55 56 56 55 55 55 56 56 57 57 57 58 58 59 59 59 55 51 48 39 44 50 49 51 43 44 41 48 46 47 50 52 57 60 58 59 59 60 60 59 59 56 55 53 52 50 51 51 52 53 52 56 59 62 61 64 67 66 66 64 65 66 67 65 63 67 68 69 69 68 68 67 65 64 64 63 58 56
55 55 55 55 54 53 53 54 54 55 55 55 55 55 55 56 56 56 57 57 58 58 59 59 59 58 51 51 46 38 45 45 45 38 38 39 41 42 42 46 49 51 56 58 57 58 60 61 60 59 56 54 51 52 48 51 51 48 52 50 53 55 61 61 63 65 66 63 67 65 65 66 66 65 63 65 68 69 68 68 67 65 65 64 63 60 60 58
55 55 55 54 54 54 54 54 54 55 55 55 55 55 55 56 56 56 57 57 58 58 59 60 59 55 52 48 44 39 42 46 44 37 34 39 37 39 38 46 49 51 56 56 57 58 59 60 61 59 56 55 52 50 50 49 47 47 46 49 52 52 53 57 62 66 65 64 66 65 64 62 65 63 66 67 68 68 68 67 68 67 64 63 62 60 59 57
53 54 54 54 54 54 54 54 54 55 55 55 55 55 55 56 56 56 57 57 58 58 59 60 59 54 53 43 35 39 42 44 43 38 32 37 36 35 37 45 49 50 55 56 54 54 58 59 60 59 56 51 50 48 48 47 44 45 50 49 51 52 51 55 61 67 65 64 67 64 53 55 58 65 67 68 68 69 68 66 67 68 64 62 61 60 58 56
53 53 53 54 54 54 54 54 54 55 55 55 55 55 55 56 57 57 58 58 59 59 60 59 57 55 51 47 37 39 39 43 43 40 34 29 35 33 39 49 52 51 54 53 51 49 52 54 52 50 49 48 48 48 47 45 44 43 49 48 50 47 45 51 61 62 62 66 67 65 54 51 60 66 68 68 68 67 65 64 67 67 64 63 62 61 60 57
53 54 54 55 55 54 54 54 54 54 55 55 55 55 55 56 57 58 58 59 59 60 61 61 56 52 49 45 38 45 72 43 39 42 38 29 32 39 47 51 51 51 54 53 48 45 47 47 46 45 44 46 47 46 46 45 46 47 46 44 50 44 46 50 53 60 61 63 66 63 52 52 58 64 68 68 68 67 64 65 66 67 66 66 62 61 58 58
54 55 55 55 55 55 55 54 55 55 55 55 55 55 55 56 57 58 59 59 60 60 58 55 55 51 46 43 36 57 42 31 38 42 43 40 39 48 46 48 50 52 49 47 47 44 43 43 40 42 43 43 42 42 42 42 48 48 42 49 45 46 44 48 51 49 56 61 62 62 53 57 60 65 67 68 67 67 64 65 66 67 68 67 65 64 61 59
55 55 55 55 55 55 55 54 54 55 55 55 55 55 55 57 58 58 59 60 58 59 53 51 49 51 42 38 36 38 34 35 43 47 48 50 50 46 48 47 46 46 45 43 43 41 42 40 40 39 40 40 41 41 41 42 42 41 45 43 43 41 44 45 44 45 55 57 57 58 53 53 57 62 66 67 67 67 64 64 66 67 67 67 68 67 63 61
55 55 55 55 55 55 54 54 54 54 54 54 55 55 55 57 58 59 57 57 55 53 52 51 49 45 37 38 35 35 34 38 37 36 38 44 40 41 44 40 38 36 34 32 33 34 36 35 35 33 36 38 38 38 37 39 43 44 43 43 45 45 47 44 40 48 50 51 52 56 55 56 59 62 65 66 67 66 65 64 65 66 66 68 67 69 63 60
55 55 55 55 55 55 54 54 54 55 54 55 55 57 59 58 55 51 48 52 47 47 42 37 41 37 26 30 33 33 40 38 34 32 35 34 33 37 38 36 31 26 23 20 20 27 30 30 31 32 31 33 36 37 36 38 40 41 43 41 39 36 40 39 38 36 38 42 42 53 54 56 61 61 63 65 67 65 65 65 66 66 67 67 68 68 67 66
55 55 55 54 54 54 54 54 55 54 55 53 51 52 51 53 52 50 50 48 45 43 40 32 33 31 30 28 28 39 41 37 33 31 32 32 32 31 31 28 25 22 19 15 16 22 25 27 25 28 30 30 33 35 35 38 40 39 41 42 39 35 35 35 36 36 36 36 45 51 48 57 60 61 62 64 66 66 64 65 64 66 66 67 68 69 68 66
55 54 54 54 54 54 54 54 55 54 54 52 51 50 43 39 38 42 45 46 46 43 39 28 24 28 34 35 41 40 38 36 33 31 29 31 29 26 25 22 22 18 16 16 12 21 22 26 26 26 27 26 36 37 38 38 39 38 37 37 36 32 33 33 33 36 37 36 40 48 50 54 58 61 62 63 65 63 64 63 64 65 66 66 67 68 69 67
54 54 54 54 54 54 54 54 54 54 54 53 52 46 39 40 41 41 41 37 40 40 37 34 22 22 37 38 40 39 35 34 33 34 33 28 29 23 24 19 18 15 14 12 13 18 25 22 23 27 29 30 36 39 40 38 36 36 35 35 33 32 31 30 30 31 35 36 40 51 47 50 58 61 62 63 64 64 64 63 63 64 65 65 66 67 68 69
55 54 54 54 54 54 54 54 54 54 52 50 48 48 43 43 42 44 40 38 37 37 32 29 28 25 34 35 34 35 32 32 31 36 34 30 31 24 23 19 15 13 11 8 9 17 27 27 22 23 27 33 38 38 36 33 33 32 31 31 30 32 28 30 30 32 33 35 37 37 51 55 57 59 62 63 63 64 67 65 66 65 64 65 64 66 66 66
55 54 54 54 55 54 54 54 54 53 52 49 44 41 42 45 43 43 40 38 38 34 28 24 25 24 31 30 33 33 32 30 31 35 36 30 30 26 24 21 13 11 9 7 6 10 24 30 28 24 35 36 34 32 30 26 25 27 27 26 28 27 26 23 25 26 28 33 31 36 49 53 54 57 58 63 63 64 65 65 66 67 67 67 67 67 66 66
55 54 54 54 54 55 54 53 50 48 47 49 45 44 42 44 45 43 41 40 37 34 30 24 23 22 26 31 32 29 31 32 30 35 36 30 29 25 22 24 19 11 8 5 5 7 13 20 30 33 34 34 33 27 23 23 22 25 27 29 27 28 27 26 26 25 28 31 36 37 40 42 54 53 53 59 63 63 64 63 64 65 64 66 66 65 66 67
55 55 54 54 54 54 53 51 48 49 44 44 46 47 43 43 44 47 44 40 28 29 25 22 23 22 30 28 30 27 30 30 32 35 37 31 33 25 19 18 18 13 9 7 4 9 12 21 29 32 33 33 32 25 20 22 22 24 27 28 25 25 26 26 23 23 28 29 39 36 37 36 50 52 55 57 58 62 64 63 63 64 66 68 67 65 64 65
55 55 54 54 54 54 49 49 51 49 44 40 43 42 44 44 55 46 38 29 27 25 22 21 20 32 32 30 26 28 23 27 31 36 36 32 28 25 18 16 15 13 13 14 15 18 21 20 22 32 32 31 28 26 23 24 27 25 25 24 26 23 25 24 24 24 27 26 27 34 31 32 45 47 56 55 56 61 62 63 63 65 64 65 66 67 66 65
54 54 54 54 54 53 51 51 49 46 44 45 45 43 44 50 51 46 43 32 21 23 20 20 19 32 29 27 26 27 29 30 29 34 34 28 26 20 19 20 18 11 14 25 26 19 22 21 23 30 31 29 27 27 27 24 22 22 23 26 27 25 25 24 24 24 24 25 28 30 31 37 40 46 49 51 52 56 59 61 63 64 63 64 64 67 66 67
54 54 54 54 53 53 53 51 50 47 47 46 46 44 45 51 46 44 38 28 23 22 27 22 34 31 31 25 25 29 30 27 25 31 29 26 23 19 15 23 24 22 15 22 25 23 24 24 23 26 31 29 25 24 24 25 24 24 26 27 26 25 23 22 22 23 26 27 31 32 28 34 40 43 47 50 48 55 57 58 60 62 63 63 64 65 66 66
53 53 53 53 53 52 52 51 50 48 47 45 45 47 46 46 45 31 31 26 25 26 29 31 30 29 31 23 24 28 32 29 32 29 28 25 20 20 20 29 30 25 24 19 18 20 20 32 34 28 28 28 24 23 23 26 28 28 26 26 25 23 23 23 24 26 25 26 30 29 27 26 35 42 44 47 49 48 53 58 59 61 63 62 64 65 65 65
53 53 53 53 50 50 51 47 47 48 47 47 47 47 47 45 40 26 17 25 27 27 28 28 25 27 28 22 22 27 29 31 31 31 28 26 19 19 23 27 29 30 28 22 19 19 20 23 26 27 30 28 25 24 28 30 29 26 25 26 25 24 24 26 25 28 25 25 25 22 23 29 36 38 46 50 50 47 48 57 58 59 61 61 60 61 65 66
52 52 52 52 52 52 48 43 50 50 52 51 49 46 44 37 35 34 20 25 22 25 26 24 25 23 26 23 23 25 27 31 31 29 28 23 19 16 21 24 24 20 23 22 20 21 21 23 25 24 30 24 24 25 27 27 26 22 23 24 16 22 28 27 25 24 24 26 25 26 30 33 38 37 44 47 47 49 54 56 56 57 59 61 61 60 61 64
51 51 52 52 52 51 50 51 51 52 52 50 48 45 42 38 19 24 28 24 21 25 24 22 23 24 24 23 26 21 26 28 30 28 28 22 17 16 17 20 25 19 19 20 17 18 16 18 19 19 21 24 19 19 20 17 18 19 19 19 23 23 22 24 27 30 28 27 26 25 31 33 33 40 47 47 50 49 52 55 54 56 55 59 60 58 60 63
51 51 51 51 51 51 51 53 52 53 51 50 47 43 42 39 32 33 22 23 22 21 21 22 23 24 24 21 23 20 25 27 28 26 25 22 18 19 16 17 21 25 22 22 20 17 17 17 16 15 14 20 18 15 15 17 20 18 18 19 21 23 21 25 24 24 27 29 27 28 28 43 31 41 37 43 53 50 47 49 54 54 57 60 58 58 57 58
50 50 52 52 52 51 51 51 52 51 50 46 44 42 39 36 32 27 21 18 19 20 20 24 22 23 23 22 26 23 20 26 25 24 21 22 18 21 19 16 21 24 24 23 23 21 13 9 16 16 14 17 16 14 13 15 19 16 17 16 15 18 18 15 18 22 28 33 35 36 39 34 35 37 36 41 43 46 48 48 52 55 57 58 58 58 58 56
50 53 52 53 51 51 51 50 50 49 48 45 42 41 39 35 29 23 17 17 19 19 20 21 21 22 19 20 26 24 21 21 23 23 20 21 21 17 22 22 19 22 25 25 20 15 6 6 14 14 12 15 15 14 14 20 23 21 17 16 14 16 16 19 18 16 21 24 30 33 41 41 32 35 33 43 50 45 48 48 51 54 56 58 57 58 57 57
53 53 50 52 51 50 48 48 48 49 48 44 42 40 38 39 34 30 27 15 12 18 18 16 19 21 16 18 20 21 21 24 22 22 22 20 22 23 21 26 26 21 23 26 24 19 17 12 13 14 13 15 15 12 14 23 24 22 19 18 16 15 18 18 17 27 25 26 36 29 33 30 32 32 34 45 43 43 44 48 50 52 55 56 57 57 60 60
53 53 53 47 48 47 46 47 47 47 43 42 41 46 41 37 33 31 24 16 16 18 15 18 17 20 14 18 19 17 21 16 20 20 23 18 17 25 24 23 27 27 23 21 21 24 20 14 14 15 17 16 15 12 15 21 22 19 17 20 17 21 21 23 18 20 23 28 32 31 30 32 33 34 38 38 46 44 41 45 48 48 50 52 56 57 59 61
53 53 49 48 47 46 45 48 46 45 43 41 41 41 38 34 37 30 25 23 17 14 14 16 14 19 16 14 15 15 17 15 16 14 23 17 19 23 21 23 24 27 26 23 21 24 24 18 16 17 18 15 16 15 16 17 19 18 20 20 19 20 21 26 24 22 25 38 30 31 30 38 35 45 36 35 38 44 39 45 47 47 49 57 53 53 59 65
48 51 46 47 46 47 50 46 42 43 42 40 40 43 40 31 27 27 27 28 18 15 15 14 11 15 16 16 13 16 15 13 11 16 23 15 14 21 18 20 19 24 24 24 22 23 21 25 20 13 15 14 15 18 16 19 18 17 19 20 19 19 21 23 27 27 36 37 35 33 34 42 39 37 43 41 38 47 42 50 50 50 51 54 55 55 61 63
50 48 44 47 46 48 47 43 40 39 40 41 40 37 37 30 26 25 25 27 24 17 20 25 10 13 17 17 14 18 13 16 17 17 19 21 17 17 17 15 18 22 21 21 22 22 24 22 20 12 13 15 15 18 16 14 16 16 16 16 11 13 19 21 23 23 31 33 41 32 34 37 35 36 37 42 41 46 49 49 55 59 58 56 52 53 59 64
47 48 43 45 46 46 43 38 38 40 39 39 41 37 37 45 32 28 25 27 30 25 25 25 18 17 20 20 17 16 17 17 18 19 17 17 13 12 20 17 17 21 18 20 18 19 25 21 19 19 13 16 11 15 15 14 15 14 14 12 8 11 15 18 23 29 37 40 32 33 33 39 38 36 38 41 41 43 46 46 48 52 51 51 52 55 57 59
49 47 45 46 47 43 41 38 42 41 39 39 39 37 36 30 31 28 25 26 26 29 24 22 20 20 18 21 19 16 18 20 18 18 15 16 12 16 19 19 17 21 17 16 15 19 35 23 22 20 21 14 14 11 15 15 12 15 16 18 18 13 15 17 17 39 34 36 35 34 35 35 37 43 40 39 42 45 46 44 48 51 53 57 61 64 63 68
51 46 43 45 46 43 41 41 41 40 40 38 37 36 34 31 30 26 28 22 24 26 25 23 22 20 20 21 20 20 21 22 19 19 18 18 16 17 15 16 21 20 12 16 15 20 21 30 29 26 26 23 18 20 16 20 18 15 16 19 19 18 19 21 23 30 31 34 33 37 39 39 40 42 45 42 43 43 44 49 48 51 54 55 57 64 66 66
50 48 45 44 46 43 39 41 42 48 40 41 43 38 32 31 31 28 27 24 27 25 26 24 25 22 21 22 21 21 21 22 22 17 19 17 18 18 17 19 21 15 15 19 45 20 18 22 29 26 25 21 19 22 23 24 20 17 18 19 22 22 24 24 23 31 28 41 36 35 36 40 40 41 40 41 42 45 45 46 49 54 57 62 63 64 65 66
48 47 42 43 44 42 42 42 41 40 42 42 42 36 35 28 29 32 29 25 28 25 26 24 24 23 22 22 24 22 21 23 21 19 17 15 16 18 20 19 19 25 42 44 42 26 20 24 24 27 30 26 27 30 24 26 23 20 20 20 22 22 23 26 27 29 29 37 33 40 34 35 36 35 39 44 44 44 43 52 57 58 59 62 65 67 67 67
50 53 48 47 45 43 42 42 41 41 42 48 48 37 44 27 29 28 28 23 24 25 25 23 22 23 23 23 23 23 21 21 24 20 24 20 23 20 21 21 23 38 59 35 31 25 30 24 26 23 26 28 25 25 24 26 22 23 23 22 22 24 25 25 25 26 36 30 32 40 42 34 38 45 39 45 45 46 51 56 56 57 60 61 63 67 67 67
50 52 48 52 47 45 45 44 39 40 46 49 50 45 41 31 29 34 30 28 24 26 24 23 22 21 21 23 24 24 23 27 26 28 23 22 22 21 22 22 23 42 34 22 24 27 26 25 26 24 23 23 24 24 24 24 24 25 25 24 24 24 25 26 27 27 26 25 32 49 48 36 38 38 43 44 45 45 50 56 56 56 58 64 66 65 59 62
48 51 54 51 54 48 53 44 42 40 43 54 54 45 39 29 31 30 32 25 25 29 31 23 23 22 22 24 28 25 29 25 27 26 26 23 22 23 22 21 22 23 21 23 23 36 32 25 25 23 23 22 22 22 23 23 24 24 24 26 24 25 27 26 25 24 25 27 26 28 38 43 37 42 45 45 47 48 50 55 56 58 61 63 59 59 57 62
48 47 50 50 49 48 44 45 48 41 43 54 52 40 38 35 32 37 35 39 36 29 31 28 24 26 26 30 30 35 34 40 29 41 26 31 23 30 21 25 21 22 20 23 24 30 26 29 30 21 23 21 21 22 22 22 23 23 24 23 25 26 28 31 30 30 34 31 27 25 38 42 48 48 48 49 49 50 50 56 58 58 58 58 58 57 62 63
47 49 51 49 48 48 47 42 43 42 40 43 42 37 39 42 31 48 45 36 35 28 27 26 28 28 30 31 33 32 32 34 33 29 32 35 38 30 37 34 25 23 23 28 26 30 26 27 27 28 26 25 22 21 21 22 21 22 23 24 24 25 27 29 31 33 31 36 38 41 45 49 49 49 47 52 55 59 60 60 59 60 60 61 61 62 63 65
50 50 50 49 47 52 53 41 53 47 36 41 45 40 48 42 31 35 31 30 30 29 30 34 31 30 31 31 32 32 31 31 30 29 31 36 39 29 34 31 21 27 26 28 30 27 31 27 30 28 26 26 24 22 20 20 21 21 21 21 23 26 30 31 33 38 44 40 41 43 47 51 57 53 51 52 58 60 59 59 59 61 63 62 62 61 59 60